THORAD DELTA 1 DEB, 8164

Orbit data source: Space-Track

THORAD DELTA 1 DEB, 8164 is space debris in SSO originally from a launch on Fri, 15 Nov 1974 UTC launched from the Air Force Western Test Range (AFWTR). Debris objects in space refer to the collection of defunct objects orbiting the Earth. Examples of debris include non-operational satellites, rocket bodies, and fragments generated from explosions, collisions, or faulty payload assembly.

Loading next visibility...
Identifier
8164, 1974-089AE
Orbit
SSO
Country
Flag of USUS
Related business
Manufacturer
Unknown
Mission
Spacecraft
Bus & Motor
Unknown
Mass
Unknown
Launch date (UTC)
1974-11-15 (51 years ago)
Launch vehicle
Unknown
Launch site
Air Force Western Test Range (AFWTR)
Object type
Payload
Rocket body
Debris
Shape & HBR
Unknown shape, 0.3 m
Radar Cross Section
Medium (>0.1 m² and <1 m²)

Expand to show TLE details & history
Last TLE update: 8 hours ago

TLE from 8 hours ago
0 THORAD DELTA 1 DEB
1  8164U 74089AE  25304.61444787 -.00000025  00000-0  12991-3 0  9995
2  8164 101.6108  73.1980 0120921  56.1867 316.4479 12.28969738286537
Epoch: 2025-10-31T14:44Z
TLE epoch observation values (Epoch: 2025-10-31T14:44:48.295Z)
Latitude
11.38704°
Longitude
169.48043°
Altitude
1,486.547 km
Speed
7.152 km/s
True Right ascension
04h 43m 21s
True Declination
11° 19' 37"
Sunlit
Object was in full shadow at epoch
Visualization orbit readout
Latitude
Unknown
Longitude
Unknown
Altitude
Unknown
Speed
Unknown
Apparent Right ascension
Unknown
Apparent Declination
Unknown
Sunlit
N/A
Visualization observer readout
Local Sidereal Time
18:55:26
Azimuth
Unknown
Elevation
Unknown
Doppler factor
Unknown
Orbital elements
Apogee altitude
1,647.16 km
Perigee altitude
1,455.394 km
Semi-major axis
7,929.414 km
Eccentricity
0.01209
Inclination
101.6108°
RAAN
73.198°
Arg. of periapsis
56.1867°
True anomaly
315.48264°
Mean anomaly
316.4479°
Eccentric anomaly
315.96633°
Mean motion
3.07384 °/min
Orbital period
117.12 mins
BSTAR
0.00012991

Documentation

Showing up to 5 results
|